Location: Rounton
(54.4000°N, 1.3500°W)
Time: 08:57:06
(UTC+01:00)

deb Agena D - Pass Details

Date: 19 June 2023
Orbit: 996 x 1023 km, 100.1° (Epoch: 29 September)

Event Time Altitude Azimuth Distance (km) Brightness Sun altitude
Exits shadow 00:39:38 12° 147° (SSE) 2,640 ? -12.0°
Maximum altitude 00:45:27 69° 66° (ENE) 1,069 ? -12.1°
Drops below altitude 10° 00:51:38 10° 345° (NNW) 2,778 ? -12.1°
Sets 00:54:08 0° 343° (NNW) 3,732 ? -12.1°
